Вернуться в каталог

STARLINK-32264

АктивенСвязьVLEO
NORAD 61642·PAYLOAD·🇺🇸 United States

Запущен Oct 23, 2024 с Cape Canaveral Space Force Station

Loading…

Ближайшие Пролёты (ближайшие 24 часа)

TLE

СвежийSource: CelesTrak SupGP

Эпоха: Sep 14, 2026, 21:39 UTC

1 61642C 24191X   26257.90256944  .00111160  00000+0  63647-3 0  2572
2 61642  42.9835 122.5671 0027350 245.3032 278.9693 15.77228958    11

Отслеживайте STARLINK-32264 в реальном времени с AllMySat

Download on the App Store